#Datum;Uhrzeit;WR;Pac;DaySum;Status;WR;Pac;DaySum;Status;Pdc1;Udc;Temp;WR;Pac;DaySum;Status;Pdc1;Udc;Temp;WR;Pac;DaySum;Status;Pdc1;Udc;Temp;WR;Pac;DaySum;Status;Pdc1;Pdc2;Udc1;Udc2;Temp;WR;Pac;DaySum;Status;Pdc1;Pdc2;Udc1;Udc2;Temp;WR;Pac;DaySum;Status;Pdc1;Udc;Temp;WR;Pac;DaySum;Status;Pdc1;Udc;Temp;WR;Pac;DaySum;Status;Pdc1;Udc;Temp
04.10.20;23:55:00;1;333;13785;0;2;0;25685;0;0;0;0;3;0;16320;0;0;0;0;4;0;23765;0;0;0;0;5;0;0;0;0;0;0;0;0;6;0;40350;0;0;0;0;0;0;7;0;35588;0;0;0;0;8;0;17584;0;0;0;0;9;0;19126;0;0;0;0
04.10.20;23:50:00;1;316;13756;0;2;0;25685;0;0;0;0;3;0;16320;0;0;0;0;4;0;23765;0;0;0;0;5;0;0;0;0;0;0;0;0;6;0;40350;0;0;0;0;0;0;7;0;35588;0;0;0;0;8;0;17584;0;0;0;0;9;0;19126;0;0;0;0
04.10.20;23:45:00;1;283;13729;0;2;0;25685;0;0;0;0;3;0;16320;0;0;0;0;4;0;23765;0;0;0;0;5;0;0;0;0;0;0;0;0;6;0;40350;0;0;0;0;0;0;7;0;35588;0;0;0;0;8;0;17584;0;0;0;0;9;0;19126;0;0;0;0
04.10.20;23:40:00;1;299;13706;0;2;0;25685;0;0;0;0;3;0;16320;0;0;0;0;4;0;23765;0;0;0;0;5;0;0;0;0;0;0;0;0;6;0;40350;0;0;0;0;0;0;7;0;35588;0;0;0;0;8;0;17584;0;0;0;0;9;0;19126;0;0;0;0
04.10.20;23:35:00;1;315;13680;0;2;0;25685;0;0;0;0;3;0;16320;0;0;0;0;4;0;23765;0;0;0;0;5;0;0;0;0;0;0;0;0;6;0;40350;0;0;0;0;0;0;7;0;35588;0;0;0;0;8;0;17584;0;0;0;0;9;0;19126;0;0;0;0
04.10.20;23:30:00;1;325;13655;0;2;0;25685;0;0;0;0;3;0;16320;0;0;0;0;4;0;23765;0;0;0;0;5;0;0;0;0;0;0;0;0;6;0;40350;0;0;0;0;0;0;7;0;35588;0;0;0;0;8;0;17584;0;0;0;0;9;0;19126;0;0;0;0
04.10.20;23:25:00;1;323;13630;0;2;0;25685;0;0;0;0;3;0;16320;0;0;0;0;4;0;23765;0;0;0;0;5;0;0;0;0;0;0;0;0;6;0;40350;0;0;0;0;0;0;7;0;35588;0;0;0;0;8;0;17584;0;0;0;0;9;0;19126;0;0;0;0
04.10.20;23:20:00;1;284;13604;0;2;0;25685;0;0;0;0;3;0;16320;0;0;0;0;4;0;23765;0;0;0;0;5;0;0;0;0;0;0;0;0;6;0;40350;0;0;0;0;0;0;7;0;35588;0;0;0;0;8;0;17584;0;0;0;0;9;0;19126;0;0;0;0
04.10.20;23:15:00;1;344;13580;0;2;0;25685;0;0;0;0;3;0;16320;0;0;0;0;4;0;23765;0;0;0;0;5;0;0;0;0;0;0;0;0;6;0;40350;0;0;0;0;0;0;7;0;35588;0;0;0;0;8;0;17584;0;0;0;0;9;0;19126;0;0;0;0
04.10.20;23:10:00;1;491;13553;0;2;0;25685;0;0;0;0;3;0;16320;0;0;0;0;4;0;23765;0;0;0;0;5;0;0;0;0;0;0;0;0;6;0;40350;0;0;0;0;0;0;7;0;35588;0;0;0;0;8;0;17584;0;0;0;0;9;0;19126;0;0;0;0
04.10.20;23:07:00;1;495;13529;0;2;0;25685;0;0;0;0;3;0;16320;0;0;0;0;4;0;23765;0;0;0;0;5;0;0;0;0;0;0;0;0;6;0;40350;0;0;0;0;0;0;7;0;35588;0;0;0;0;8;0;17584;0;0;0;0;9;0;19126;0;0;0;0
04.10.20;23:00:00;1;521;13471;0;2;0;25685;0;0;0;0;3;0;16320;0;0;0;0;4;0;23765;0;0;0;0;5;0;0;0;0;0;0;0;0;6;0;40350;0;0;0;0;0;0;7;0;35588;0;0;0;0;8;0;17584;0;0;0;0;9;0;19126;0;0;0;0
04.10.20;22:55:00;1;435;13429;0;2;0;25685;0;0;0;0;3;0;16320;0;0;0;0;4;0;23765;0;0;0;0;5;0;0;0;0;0;0;0;0;6;0;40350;2;0;0;0;0;0;7;0;35588;0;0;0;0;8;0;17584;0;0;0;0;9;0;19126;0;0;0;0
04.10.20;22:50:00;1;364;13395;0;2;0;25685;0;0;0;0;3;0;16320;0;0;0;0;4;0;23765;0;0;0;0;5;0;0;0;0;0;0;0;0;6;0;40350;2;0;0;0;0;0;7;0;35588;0;0;0;0;8;0;17584;0;0;0;0;9;0;19126;0;0;0;0
04.10.20;22:45:00;1;358;13364;0;2;0;25685;0;0;0;0;3;0;16320;0;0;0;0;4;0;23765;0;0;0;0;5;0;0;0;0;0;0;0;0;6;0;40350;2;0;0;0;0;0;7;0;35588;0;0;0;0;8;0;17584;0;0;0;0;9;0;19126;0;0;0;0
04.10.20;22:40:00;1;364;13334;0;2;0;25685;0;0;0;0;3;0;16320;0;0;0;0;4;0;23765;0;0;0;0;5;0;0;0;0;0;0;0;0;6;0;40350;2;0;0;0;0;0;7;0;35588;0;0;0;0;8;0;17584;0;0;0;0;9;0;19126;0;0;0;0
04.10.20;22:35:00;1;399;13304;0;2;0;25685;0;0;0;0;3;0;16320;0;0;0;0;4;0;23765;0;0;0;0;5;0;0;0;0;0;0;0;0;6;0;40350;2;0;0;0;0;0;7;0;35588;0;0;0;0;8;0;17584;0;0;0;0;9;0;19126;0;0;0;0
04.10.20;22:30:00;1;359;13271;0;2;0;25685;0;0;0;0;3;0;16320;0;0;0;0;4;0;23765;0;0;0;0;5;0;0;0;0;0;0;0;0;6;0;40350;2;0;0;0;0;0;7;0;35588;0;0;0;0;8;0;17584;0;0;0;0;9;0;19126;0;0;0;0
04.10.20;22:25:00;1;375;13240;0;2;0;25685;0;0;0;0;3;0;16320;0;0;0;0;4;0;23765;0;0;0;0;5;0;0;0;0;0;0;0;0;6;0;40350;2;0;0;0;0;0;7;0;35588;0;0;0;0;8;0;17584;0;0;0;0;9;0;19126;0;0;0;0
04.10.20;22:20:00;1;411;13209;0;2;0;25685;0;0;0;0;3;0;16320;0;0;0;0;4;0;23765;0;0;0;0;5;0;0;0;0;0;0;0;0;6;0;40350;2;0;0;0;0;0;7;0;35588;0;0;0;0;8;0;17584;0;0;0;0;9;0;19126;0;0;0;0
04.10.20;22:15:00;1;381;13174;0;2;0;25685;0;0;0;0;3;0;16320;0;0;0;0;4;0;23765;0;0;0;0;5;0;0;0;0;0;0;0;0;6;0;40350;2;0;0;0;0;0;7;0;35588;0;0;0;0;8;0;17584;0;0;0;0;9;0;19126;0;0;0;0
04.10.20;22:10:00;1;378;13142;0;2;0;25685;0;0;0;0;3;0;16320;0;0;0;0;4;0;23765;0;0;0;0;5;0;0;0;0;0;0;0;0;6;0;40350;2;0;0;0;0;0;7;0;35588;0;0;0;0;8;0;17584;0;0;0;0;9;0;19126;0;0;0;0
04.10.20;22:05:00;1;522;13111;0;2;0;25685;0;0;0;0;3;0;16320;0;0;0;0;4;0;23765;0;0;0;0;5;0;0;0;0;0;0;0;0;6;0;40350;2;0;0;0;0;0;7;0;35588;0;0;0;0;8;0;17584;0;0;0;0;9;0;19126;0;0;0;0
04.10.20;22:00:00;1;453;13068;0;2;0;25685;0;0;0;0;3;0;16320;0;0;0;0;4;0;23765;0;0;0;0;5;0;0;0;0;0;0;0;0;6;0;40350;2;0;0;0;0;0;7;0;35588;0;0;0;0;8;0;17584;0;0;0;0;9;0;19126;0;0;0;0
04.10.20;21:55:00;1;427;13029;0;2;0;25685;0;0;0;0;3;0;16320;0;0;0;0;4;0;23765;0;0;0;0;5;0;0;0;0;0;0;0;0;6;0;40350;2;0;0;0;0;0;7;0;35588;0;0;0;0;8;0;17584;0;0;0;0;9;0;19126;0;0;0;0
04.10.20;21:50:00;1;425;12994;0;2;0;25685;0;0;0;0;3;0;16320;0;0;0;0;4;0;23765;0;0;0;0;5;0;0;0;0;0;0;0;0;6;0;40350;2;0;0;0;0;0;7;0;35588;0;0;0;0;8;0;17584;0;0;0;0;9;0;19126;0;0;0;0
04.10.20;21:45:00;1;444;12958;0;2;0;25685;0;0;0;0;3;0;16320;0;0;0;0;4;0;23765;0;0;0;0;5;0;0;0;0;0;0;0;0;6;0;40350;2;0;0;0;0;0;7;0;35588;0;0;0;0;8;0;17584;0;0;0;0;9;0;19126;0;0;0;0
04.10.20;21:40:00;1;460;12921;0;2;0;25685;0;0;0;0;3;0;16320;0;0;0;0;4;0;23765;0;0;0;0;5;0;0;0;0;0;0;0;0;6;0;40350;2;0;0;0;0;0;7;0;35588;0;0;0;0;8;0;17584;0;0;0;0;9;0;19126;0;0;0;0
04.10.20;21:35:00;1;457;12883;0;2;0;25685;0;0;0;0;3;0;16320;0;0;0;0;4;0;23765;0;0;0;0;5;0;0;0;0;0;0;0;0;6;0;40350;2;0;0;0;0;0;7;0;35588;0;0;0;0;8;0;17584;0;0;0;0;9;0;19126;0;0;0;0
04.10.20;21:30:00;1;315;12845;0;2;0;25685;0;0;0;0;3;0;16320;0;0;0;0;4;0;23765;0;0;0;0;5;0;0;0;0;0;0;0;0;6;0;40350;2;0;0;0;0;0;7;0;35588;0;0;0;0;8;0;17584;0;0;0;0;9;0;19126;0;0;0;0
04.10.20;21:25:00;1;366;12818;0;2;0;25685;0;0;0;0;3;0;16320;0;0;0;0;4;0;23765;0;0;0;0;5;0;0;0;0;0;0;0;0;6;0;40350;2;0;0;0;0;0;7;0;35588;0;0;0;0;8;0;17584;0;0;0;0;9;0;19126;0;0;0;0
04.10.20;21:20:00;1;425;12790;0;2;0;25685;0;0;0;0;3;0;16320;0;0;0;0;4;0;23765;0;0;0;0;5;0;0;0;0;0;0;0;0;6;0;40350;2;0;0;0;0;0;7;0;35588;0;0;0;0;8;0;17584;0;0;0;0;9;0;19126;0;0;0;0
04.10.20;21:15:00;1;396;12754;0;2;0;25685;0;0;0;0;3;0;16320;0;0;0;0;4;0;23765;0;0;0;0;5;0;0;0;0;0;0;0;0;6;0;40350;2;0;0;0;0;0;7;0;35588;0;0;0;0;8;0;17584;0;0;0;0;9;0;19126;0;0;0;0
04.10.20;21:10:00;1;434;12721;0;2;0;25685;0;0;0;0;3;0;16320;0;0;0;0;4;0;23765;0;0;0;0;5;0;0;0;0;0;0;0;0;6;0;40350;2;0;0;0;0;0;7;0;35588;0;0;0;0;8;0;17584;0;0;0;0;9;0;19126;0;0;0;0
04.10.20;21:05:00;1;408;12685;0;2;0;25685;0;0;0;0;3;0;16320;0;0;0;0;4;0;23765;0;0;0;0;5;0;0;0;0;0;0;0;0;6;0;40350;2;0;0;0;0;0;7;0;35588;0;0;0;0;8;0;17584;0;0;0;0;9;0;19126;0;0;0;0
04.10.20;21:00:00;1;424;12650;0;2;0;25685;0;0;0;0;3;0;16320;0;0;0;0;4;0;23765;0;0;0;0;5;0;0;0;0;0;0;0;0;6;0;40350;2;0;0;0;0;0;7;0;35588;0;0;0;0;8;0;17584;0;0;0;0;9;0;19126;0;0;0;0
04.10.20;20:55:00;1;427;12615;0;2;0;25685;0;0;0;0;3;0;16320;0;0;0;0;4;0;23765;0;0;0;0;5;0;0;0;0;0;0;0;0;6;0;40350;2;0;0;0;0;0;7;0;35588;0;0;0;0;8;0;17584;0;0;0;0;9;0;19126;0;0;0;0
04.10.20;20:50:00;1;475;12580;0;2;0;25685;0;0;0;0;3;0;16320;0;0;0;0;4;0;23765;0;0;0;0;5;0;0;0;0;0;0;0;0;6;0;40350;2;0;0;0;0;0;7;0;35588;0;0;0;0;8;0;17584;0;0;0;0;9;0;19126;0;0;0;0
04.10.20;20:45:00;1;445;12540;0;2;0;25685;0;0;0;0;3;0;16320;0;0;0;0;4;0;23765;0;0;0;0;5;0;0;0;0;0;0;0;0;6;0;40350;2;0;0;0;0;0;7;0;35588;0;0;0;0;8;0;17584;0;0;0;0;9;0;19126;0;0;0;0
04.10.20;20:40:00;1;495;12502;0;2;0;25685;0;0;0;0;3;0;16320;0;0;0;0;4;0;23765;0;0;0;0;5;0;0;0;0;0;0;0;0;6;0;40350;2;0;0;0;0;0;7;0;35588;0;0;0;0;8;0;17584;0;0;0;0;9;0;19126;0;0;0;0
04.10.20;20:35:00;1;433;12460;0;2;0;25685;0;0;0;0;3;0;16320;0;0;0;0;4;0;23765;0;0;0;0;5;0;0;0;0;0;0;0;0;6;0;40350;2;0;0;0;0;0;7;0;35588;0;0;0;0;8;0;17584;0;0;0;0;9;0;19126;0;0;0;0
04.10.20;20:30:00;1;381;12424;0;2;0;25685;0;0;0;0;3;0;16320;0;0;0;0;4;0;23765;0;0;0;0;5;0;0;0;0;0;0;0;0;6;0;40350;2;0;0;0;0;0;7;0;35588;0;0;0;0;8;0;17584;0;0;0;0;9;0;19126;0;0;0;0
04.10.20;20:25:00;1;398;12392;0;2;0;25685;0;0;0;0;3;0;16320;0;0;0;0;4;0;23765;0;0;0;0;5;0;0;0;0;0;0;0;0;6;0;40350;2;0;0;0;0;0;7;0;35588;0;0;0;0;8;0;17584;0;0;0;0;9;0;19126;0;0;0;0
04.10.20;20:20:00;1;412;12359;0;2;0;25685;0;0;0;0;3;0;16320;0;0;0;0;4;0;23765;0;0;0;0;5;0;0;0;0;0;0;0;0;6;0;40350;2;0;0;0;0;0;7;0;35588;0;0;0;0;8;0;17584;0;0;0;0;9;0;19126;0;0;0;0
04.10.20;20:15:00;1;449;12325;0;2;0;25685;0;0;0;0;3;0;16320;0;0;0;0;4;0;23765;0;0;0;0;5;0;0;0;0;0;0;0;0;6;0;40350;2;0;0;0;0;0;7;0;35588;0;0;0;0;8;0;17584;0;0;0;0;9;0;19126;0;0;0;0
04.10.20;20:10:00;1;512;12288;0;2;0;25685;0;0;0;0;3;0;16320;0;0;0;0;4;0;23765;0;0;0;0;5;0;0;0;0;0;0;0;0;6;0;40350;2;0;0;0;0;0;7;0;35588;0;0;0;0;8;0;17584;0;0;0;0;9;0;19126;0;0;0;0
04.10.20;20:05:00;1;393;12245;0;2;0;25685;0;0;0;0;3;0;16320;0;0;0;0;4;0;23765;0;0;0;0;5;0;0;0;0;0;0;0;0;6;0;40350;2;0;0;0;0;0;7;0;35588;0;0;0;0;8;0;17584;0;0;0;0;9;0;19126;0;0;0;0
04.10.20;20:00:00;1;360;12211;0;2;0;25685;0;0;0;0;3;0;16320;0;0;0;0;4;0;23765;0;0;0;0;5;0;0;0;0;0;0;0;0;6;0;40350;2;0;0;0;0;0;7;0;35588;0;0;0;0;8;0;17584;0;0;0;0;9;0;19126;0;0;0;0
04.10.20;19:55:00;1;375;12181;0;2;0;25685;0;0;0;0;3;0;16320;0;0;0;0;4;0;23765;0;0;0;0;5;0;0;0;0;0;0;0;0;6;0;40350;2;0;0;0;0;0;7;0;35588;0;0;0;0;8;0;17584;0;0;0;0;9;0;19126;0;0;0;0
04.10.20;19:50:00;1;419;12150;0;2;0;25685;0;0;0;0;3;0;16320;0;0;0;0;4;0;23765;0;0;0;0;5;0;0;0;0;0;0;0;0;6;0;40350;2;0;0;0;0;0;7;0;35588;0;0;0;0;8;0;17584;0;0;0;0;9;0;19126;0;0;0;0
04.10.20;19:45:00;1;465;12115;0;2;0;25685;0;0;0;0;3;0;16320;0;0;0;0;4;0;23765;0;0;0;0;5;0;0;0;0;0;0;0;0;6;0;40350;2;0;0;0;0;0;7;0;35588;0;0;0;0;8;0;17584;0;0;0;0;9;0;19126;0;0;0;0
04.10.20;19:40:00;1;437;12077;0;2;0;25685;0;0;0;0;3;0;16320;0;0;0;0;4;0;23765;0;0;0;0;5;0;0;0;0;0;0;0;0;6;0;40350;2;0;0;0;0;0;7;0;35588;0;0;0;0;8;0;17584;0;0;0;0;9;0;19126;0;0;0;0
04.10.20;19:35:00;1;1182;12039;0;2;0;25685;0;0;0;0;3;0;16320;0;0;0;0;4;0;23765;0;0;0;0;5;0;0;0;0;0;0;0;0;6;0;40350;2;0;0;0;0;0;7;0;35588;0;0;0;0;8;0;17584;0;0;0;0;9;0;19126;0;0;0;0
04.10.20;19:30:00;1;1401;11960;0;2;0;25685;0;0;0;0;3;0;16320;0;0;0;0;4;0;23765;0;0;0;0;5;0;0;0;0;0;0;0;0;6;0;40350;2;0;0;0;0;0;7;0;35588;0;0;0;0;8;0;17584;0;0;0;0;9;0;19126;0;0;0;0
04.10.20;19:25:00;1;1466;11825;0;2;0;25685;0;0;0;0;3;0;16320;0;0;0;0;4;0;23765;0;0;0;0;5;0;0;0;0;0;0;0;0;6;0;40350;2;0;0;0;0;0;7;0;35588;0;0;0;0;8;0;17584;0;0;0;0;9;0;19126;0;0;0;0
04.10.20;19:20:00;1;1061;11709;0;2;0;25685;0;0;0;0;3;0;16320;0;0;0;0;4;0;23765;0;0;0;0;5;0;0;0;0;0;0;0;0;6;0;40350;2;0;0;0;0;0;7;0;35588;0;0;0;0;8;0;17584;0;0;0;0;9;0;19126;0;0;0;0
04.10.20;19:15:00;1;1867;11604;0;2;0;25685;0;0;0;0;3;0;16320;0;0;0;0;4;0;23765;0;0;0;0;5;0;0;0;0;0;0;0;0;6;0;40350;2;0;0;0;0;0;7;0;35588;0;0;0;0;8;0;17584;0;0;0;0;9;0;19126;0;0;0;0
04.10.20;19:10:00;1;478;11420;0;2;0;25685;0;0;0;0;3;0;16320;0;0;0;0;4;0;23765;0;0;0;0;5;0;0;0;0;0;0;0;0;6;0;40350;2;0;0;0;0;0;7;0;35588;0;0;0;0;8;0;17584;0;0;0;0;9;0;19126;0;0;0;0
04.10.20;19:05:00;1;464;11384;0;2;0;25685;0;0;0;0;3;0;16320;0;0;35;3;4;0;23765;0;0;0;0;5;0;0;0;0;0;0;0;0;6;0;40350;0;0;0;0;0;0;7;0;35588;0;0;0;0;8;0;17584;0;0;0;0;9;0;19126;0;0;0;0
04.10.20;19:00:00;1;1080;11337;0;2;0;25685;0;0;204;18;3;0;16320;6;0;300;27;4;0;23765;0;0;23;10;5;0;0;0;0;0;0;0;0;6;0;40350;2;0;0;0;0;0;7;0;35588;0;0;0;0;8;0;17584;0;0;0;0;9;0;19126;0;0;0;0
04.10.20;18:55:00;1;1464;11226;0;2;0;25685;6;0;309;25;3;0;16320;6;0;370;27;4;0;23765;2;0;88;29;5;0;0;0;0;0;0;0;0;6;0;40350;2;0;0;0;0;0;7;0;35588;0;0;0;0;8;0;17584;0;0;0;0;9;0;19126;0;0;0;0
04.10.20;18:50:00;1;3935;11064;0;2;0;25685;6;0;345;26;3;0;16320;6;1;418;28;4;0;23765;1;0;137;29;5;0;0;0;0;0;0;0;0;6;0;40350;2;10;0;376;150;29;7;0;35588;11;0;284;29;8;0;17584;0;0;240;21;9;0;19126;2;0;289;23
04.10.20;18:45:00;1;426;10725;0;2;0;25685;6;0;366;27;3;0;16320;6;3;442;28;4;0;23765;1;0;179;30;5;0;0;0;0;0;0;0;0;6;0;40350;23;10;0;533;180;35;7;0;35588;6;0;357;29;8;0;17584;6;0;354;26;9;0;19126;6;0;367;24
04.10.20;18:40:00;1;309;10689;0;2;0;25685;6;0;384;27;3;0;16320;6;0;490;29;4;0;23765;1;0;213;31;5;0;0;0;0;0;0;0;0;6;0;40350;23;8;0;241;548;35;7;0;35588;6;1;406;30;8;0;17584;6;0;418;26;9;0;19126;6;1;434;24
04.10.20;18:35:00;1;226;10662;0;2;0;25685;6;0;398;28;3;2;16320;4;4;485;29;4;0;23765;3;0;208;31;5;0;0;0;0;0;0;0;0;6;8;40350;23;16;4;537;541;36;7;2;35588;6;4;435;30;8;0;17584;4;0;434;27;9;0;19126;6;1;458;24
04.10.20;18:30:00;1;255;10643;0;2;103;25685;6;134;365;29;3;21;16320;3;36;529;29;4;64;23765;3;66;206;32;5;0;0;0;0;0;0;0;0;6;66;40349;4;52;32;464;445;37;7;45;35588;6;60;426;31;8;1;17584;3;7;417;27;9;0;19126;3;7;476;25
04.10.20;18:25:00;1;257;10621;0;2;270;25678;4;307;351;30;3;74;16318;4;123;545;30;4;215;23761;5;224;224;32;5;0;0;0;0;0;0;0;0;6;90;40343;4;74;52;464;445;37;7;134;35585;4;169;432;31;8;2;17584;6;8;452;27;9;3;19126;6;11;489;25
04.10.20;18:20:00;1;292;10600;0;2;119;25656;4;155;357;31;3;60;16312;4;100;472;31;4;63;23743;5;65;200;33;5;0;0;0;0;0;0;0;0;6;108;40335;4;56;45;464;445;37;7;84;35574;4;126;423;31;8;1;17584;6;6;476;28;9;3;19125;6;8;524;26
04.10.20;18:15:00;1;297;10576;0;2;122;25645;4;159;358;32;3;66;16307;4;105;457;31;4;65;23737;3;67;198;33;5;0;0;0;0;0;0;0;0;6;136;40326;4;59;47;464;445;38;7;94;35567;4;129;395;32;8;8;17584;6;14;456;28;9;5;19125;6;10;531;26
04.10.20;18:10:00;1;217;10552;0;2;193;25635;4;234;359;32;3;106;16301;4;146;460;32;4;127;23732;5;132;215;34;5;0;0;0;0;0;0;0;0;6;157;40315;4;90;74;464;445;38;7;145;35559;4;185;428;32;8;32;17583;6;62;404;29;9;5;19125;6;9;539;27
04.10.20;18:05:00;1;222;10534;0;2;528;25619;4;578;359;34;3;315;16293;4;361;422;32;4;433;23721;5;451;230;35;5;0;0;0;0;0;0;0;0;6;224;40301;4;115;101;464;445;38;7;467;35546;4;515;438;33;8;101;17580;4;149;487;29;9;54;19124;6;80;477;28
04.10.20;18:00:00;1;267;10515;0;2;545;25575;4;597;356;35;3;308;16266;4;352;416;33;4;428;23684;5;446;225;35;5;0;0;0;0;0;0;0;0;6;288;40282;4;164;150;499;473;38;7;534;35505;4;584;453;33;8;210;17571;4;255;467;29;9;90;19120;4;119;474;28
04.10.20;17:55:00;1;249;10493;0;2;1039;25530;4;1106;358;36;3;628;16241;4;679;399;34;4;888;23649;5;925;234;36;5;0;0;0;0;0;0;0;0;6;486;40257;4;264;250;578;539;38;7;1307;35461;4;1390;464;34;8;628;17554;4;676;460;29;9;96;19112;4;136;502;29
04.10.20;17:50:00;1;276;10472;0;2;878;25447;4;941;358;36;3;541;16191;4;588;410;34;4;761;23578;5;793;228;36;5;0;0;0;0;0;0;0;0;6;520;40216;4;255;237;567;543;38;7;1145;35356;4;1212;456;34;8;535;17503;4;581;442;29;9;115;19104;4;148;512;29
04.10.20;17:45:00;1;294;10450;0;2;907;25373;4;972;373;37;3;561;16145;4;610;404;34;4;769;23513;5;801;222;37;5;0;0;0;0;0;0;0;0;6;583;40172;4;298;287;557;537;38;7;1196;35258;4;1266;455;34;8;567;17458;4;616;451;29;9;126;19094;4;162;529;30
04.10.20;17:40:00;1;289;10425;0;2;1601;25293;4;1689;358;39;3;935;16095;4;995;415;35;4;1305;23445;5;1359;227;37;5;0;0;0;0;0;0;0;0;6;939;40121;4;491;473;578;550;39;7;1816;35156;4;1910;463;34;8;872;17409;4;926;452;30;9;178;19084;4;215;539;30
04.10.20;17:35:00;1;316;10400;0;2;2076;25159;4;2186;369;40;3;1189;16018;4;1260;415;35;4;1753;23337;5;1826;236;38;5;0;0;0;0;0;0;0;0;6;1324;40041;4;674;650;585;561;39;7;2347;35003;4;2469;467;34;8;1147;17336;4;1211;460;30;9;274;19069;4;317;552;31
04.10.20;17:30:00;1;262;10374;0;2;2244;24986;4;2361;376;40;3;1329;15918;4;1403;427;36;4;1972;23190;5;2054;235;37;5;0;0;0;0;0;0;0;0;6;1588;39927;4;817;785;589;565;39;7;2206;34806;4;2315;392;29;8;1302;17240;4;1369;463;30;9;366;19046;4;415;568;32
04.10.20;17:25:00;1;264;10352;0;2;2379;24800;4;2504;383;39;3;1399;15807;4;1476;432;35;4;2072;23026;5;2159;241;37;5;0;0;0;0;0;0;0;0;6;1683;39795;4;875;836;591;564;39;7;2750;34587;4;2891;475;35;8;1320;17132;4;1399;482;30;9;355;19015;4;407;560;32
04.10.20;17:20:00;1;328;10330;0;2;991;24601;4;1062;384;38;3;541;15691;4;597;468;35;4;774;22853;5;806;233;37;5;0;0;0;0;0;0;0;0;6;807;39659;4;420;400;558;539;39;7;1025;34356;4;1086;456;35;8;507;17021;4;562;467;30;9;295;18986;4;344;528;33
04.10.20;17:15:00;1;253;10303;0;2;527;24509;4;582;380;39;3;331;15641;4;381;478;35;4;393;22783;5;410;223;37;5;0;0;0;0;0;0;0;0;6;553;39590;4;290;270;542;528;39;7;522;34264;4;576;452;36;8;238;16975;4;278;457;30;9;248;18961;4;291;506;33
04.10.20;17:10:00;1;268;10282;0;2;541;24465;4;598;377;41;3;335;15613;4;384;484;36;4;401;22750;5;418;224;38;5;0;0;0;0;0;0;0;0;6;567;39544;4;281;266;550;526;40;7;533;34220;4;585;448;36;8;236;16955;4;281;448;31;9;251;18940;4;293;494;34
04.10.20;17:05:00;1;266;10259;0;2;1090;24420;4;1168;381;42;3;525;15586;4;584;501;37;4;846;22717;5;881;234;39;5;0;0;0;0;0;0;0;0;6;971;39496;4;521;503;558;536;40;7;1064;34175;4;1138;454;37;8;523;16935;4;563;451;31;9;500;18919;4;551;465;35
04.10.20;17:00:00;1;266;10237;0;2;665;24332;4;726;372;44;3;402;15542;4;453;461;37;4;489;22648;5;509;222;40;5;0;0;0;0;0;0;0;0;6;674;39416;4;336;314;545;534;40;7;681;34091;4;734;439;38;8;317;16894;4;357;440;31;9;319;18879;4;368;495;36
04.10.20;16:55:00;1;286;10215;0;2;1358;24276;4;1443;367;46;3;702;15509;4;757;407;38;4;895;22607;5;932;216;41;5;0;0;0;0;0;0;0;0;6;986;39360;4;514;493;558;542;40;7;1278;34033;4;1359;443;39;8;603;16867;4;652;455;32;9;604;18852;4;660;488;38
04.10.20;16:50:00;1;408;10190;0;2;2290;24165;4;2419;373;48;3;1205;15451;4;1274;411;39;4;1643;22534;5;1711;211;42;5;0;0;0;0;0;0;0;0;6;2030;39261;4;1082;1038;569;550;41;7;2390;33915;4;2514;454;39;8;1142;16810;4;1205;451;32;9;1272;18797;4;1353;486;39
04.10.20;16:45:00;1;387;10155;0;2;2969;23973;4;3132;377;50;3;1536;15350;4;1618;412;40;4;1968;22397;5;2050;202;42;5;0;0;0;0;0;0;0;0;6;2525;39096;4;1332;1279;566;551;41;7;3365;33722;4;3529;445;40;8;1666;16719;4;1754;440;32;9;1839;18694;4;1953;499;41
04.10.20;16:40:00;1;1813;10123;0;2;3040;23725;4;3209;370;50;3;1561;15223;4;1643;399;40;4;1995;22232;5;2078;201;43;5;0;0;0;0;0;0;0;0;6;2748;38879;4;1432;1367;570;548;41;7;3544;33443;4;3717;444;40;8;1752;16580;4;1840;439;32;9;1937;18542;4;2050;491;41
04.10.20;16:35:00;1;732;10018;0;2;3090;23471;4;3260;369;51;3;1553;15092;4;1635;391;41;4;2018;22066;5;2102;208;43;5;0;0;0;0;0;0;0;0;6;2876;38650;4;1482;1420;565;550;41;7;3628;33148;4;3813;446;41;8;1799;16435;4;1888;446;32;9;1985;18381;4;2103;496;41
04.10.20;16:30:00;1;380;9980;0;2;3160;23215;4;3336;380;51;3;1699;14962;4;1789;401;41;4;2155;21898;5;2245;215;44;5;0;0;0;0;0;0;0;0;6;3041;38409;4;1578;1519;565;551;41;7;3741;32846;4;3927;442;41;8;1853;16285;4;1951;442;32;9;2057;18215;4;2175;494;42
04.10.20;16:25:00;1;355;9950;0;2;3215;22950;4;3393;376;51;3;1785;14821;4;1878;401;42;4;2256;21718;5;2350;227;44;5;0;0;0;0;0;0;0;0;6;3189;38154;4;1658;1606;566;550;41;7;3838;32534;4;4033;439;41;8;1909;16130;4;2002;436;32;9;2107;18043;4;2231;491;42
04.10.20;16:20:00;1;295;9921;0;2;3296;22683;4;3478;370;52;3;1828;14672;4;1921;399;42;4;2293;21530;5;2389;222;45;5;0;0;0;0;0;0;0;0;6;3356;37888;4;1711;1672;562;548;42;7;3958;32214;4;4159;438;41;8;1963;15972;4;2063;437;33;9;2176;17868;4;2304;488;42
04.10.20;16:15:00;1;276;9894;0;2;3365;22409;4;3551;367;52;3;1860;14520;4;1959;405;42;4;2336;21340;5;2433;219;45;5;0;0;0;0;0;0;0;0;6;3496;37608;4;1809;1745;561;550;42;7;4043;31885;4;4253;436;42;8;2008;15808;4;2102;439;33;9;2221;17689;4;2354;488;43
04.10.20;16:10:00;1;276;9871;0;2;3423;22128;4;3615;369;53;3;1934;14365;4;2036;411;43;4;2482;21144;5;2585;223;46;5;0;0;0;0;0;0;0;0;6;3644;37315;4;1889;1825;561;549;42;7;4104;31548;4;4312;435;42;8;2041;15641;4;2145;433;33;9;2264;17502;4;2401;484;43
04.10.20;16:05:00;1;299;9848;0;2;3457;21843;4;3646;362;53;3;1960;14204;4;2061;407;43;4;2630;20938;5;2740;223;47;5;0;0;0;0;0;0;0;0;6;3774;37011;4;1947;1877;559;549;42;7;4191;31206;4;4401;434;42;8;2075;15470;4;2184;438;33;9;2307;17313;4;2445;483;43
04.10.20;16:00:00;1;323;9824;0;2;3526;21555;4;3723;365;53;3;1990;14040;4;2093;400;44;4;2790;20718;5;2906;224;47;5;0;0;0;0;0;0;0;0;6;3894;36696;4;2030;1958;557;544;42;7;4309;30857;4;4522;430;42;8;2134;15297;4;2244;438;33;9;2374;17121;4;2511;485;44
04.10.20;15:55:00;1;1801;9797;0;2;3572;21261;4;3773;368;54;3;2027;13875;4;2127;409;44;4;2896;20486;5;3016;224;48;5;0;0;0;0;0;0;0;0;6;3999;36371;4;2054;1985;555;543;42;7;4372;30498;4;4590;435;43;8;2170;15120;4;2272;429;33;9;2413;16923;4;2555;483;44
04.10.20;15:50:00;1;2469;9652;0;2;3612;20963;4;3817;369;54;3;2094;13706;4;2202;414;44;4;2985;20244;5;3109;222;48;5;0;0;0;0;0;0;0;0;6;4141;36036;4;2150;2061;552;539;42;7;4449;30134;4;4670;429;43;8;2204;14939;4;2310;432;33;9;2451;16724;4;2594;482;44
04.10.20;15:45:00;1;2542;9448;0;2;3631;20662;4;3834;371;54;3;2118;13531;4;2225;411;44;4;3065;19997;5;3193;223;48;5;0;0;0;0;0;0;0;0;6;4256;35691;4;2213;2130;552;539;42;7;4521;29763;4;4742;433;43;8;2240;14755;4;2351;427;33;9;2496;16518;4;2638;483;45
04.10.20;15:40:00;1;2518;9236;0;2;3698;20360;4;3905;365;55;3;2149;13355;4;2257;413;45;4;3150;19741;5;3282;218;49;5;0;0;0;0;0;0;0;0;6;4399;35335;4;2285;2184;550;538;43;7;4602;29386;4;4826;433;43;8;2287;14570;4;2397;427;33;9;2550;16311;4;2695;477;45
04.10.20;15:35:00;1;2518;9026;0;2;3736;20053;4;3946;365;55;3;2173;13176;4;2284;411;45;4;3230;19479;5;3364;219;49;5;0;0;0;0;0;0;0;0;6;4517;34968;4;2328;2249;550;538;43;7;4682;29003;4;4909;423;44;8;2324;14378;4;2434;431;33;9;2596;16099;4;2743;482;45
04.10.20;15:30:00;1;2574;8815;0;2;3807;19742;4;4012;360;55;3;2221;12994;4;2332;422;46;4;3355;19210;5;3494;219;49;5;0;0;0;0;0;0;0;0;6;4667;34590;4;2433;2339;550;533;43;7;4762;28613;4;4994;423;44;8;2367;14185;4;2479;424;33;9;2643;15881;4;2791;479;45
04.10.20;15:25:00;1;2590;8601;0;2;3846;19424;4;4056;361;55;3;2281;12810;4;2396;422;46;4;3414;18931;5;3556;219;49;5;0;0;0;0;0;0;0;0;6;4803;34202;4;2490;2406;551;538;43;7;4826;28217;4;5062;419;44;8;2404;13987;4;2518;424;34;9;2683;15663;4;2834;474;46
04.10.20;15:20:00;1;2119;8385;0;2;3864;19103;4;4088;370;55;3;2299;12620;4;2417;427;46;4;3455;18646;5;3599;220;49;5;0;0;0;0;0;0;0;0;6;4935;33799;4;2561;2472;553;542;43;7;4868;27814;4;5119;419;44;8;2422;13787;4;2541;431;34;9;2705;15437;4;2861;478;46
04.10.20;15:15:00;1;334;8202;0;2;3922;18781;4;4140;367;55;3;2365;12428;4;2488;431;47;4;3498;18359;5;3644;220;49;5;0;0;0;0;0;0;0;0;6;5048;33387;4;2627;2538;550;541;43;7;4946;27409;4;5192;423;44;8;2448;13585;4;2569;424;34;9;2733;15212;4;2893;476;46
04.10.20;15:10:00;1;333;8174;0;2;3974;18454;4;4192;359;55;3;2501;12231;4;2635;453;47;4;3558;18067;5;3706;219;49;5;0;0;0;0;0;0;0;0;6;5151;32965;4;2679;2578;550;537;43;7;5023;26996;4;5282;426;45;8;2492;13381;4;2617;420;34;9;2784;14985;4;2948;478;46
04.10.20;15:05:00;1;357;8142;0;2;3994;18123;4;4219;360;55;3;2603;12023;4;2742;468;47;4;3592;17770;5;3741;222;49;5;0;0;0;0;0;0;0;0;6;5252;32536;4;2710;2618;549;539;43;7;5047;26578;4;5307;427;45;8;2519;13173;4;2637;423;34;9;2809;14752;4;2966;471;47
04.10.20;15:00:00;1;368;8112;0;2;4026;17791;4;4255;371;55;3;2643;11806;4;2783;470;47;4;3613;17471;5;3763;219;50;5;0;0;0;0;0;0;0;0;6;5393;32097;4;2800;2709;552;538;43;7;5135;26161;4;5402;422;45;8;2548;12965;4;2674;424;34;9;2863;14520;4;3026;481;47
04.10.20;14:55:00;1;371;8083;0;2;4035;17456;4;4266;370;55;3;2649;11586;4;2788;462;47;4;3647;17170;5;3799;219;50;5;0;0;0;0;0;0;0;0;6;5475;31647;4;2844;2750;551;539;43;7;5195;25729;4;5462;427;45;8;2574;12752;4;2699;425;34;9;2889;14280;4;3049;477;47
04.10.20;14:50:00;1;380;8052;0;2;4096;17118;4;4320;361;55;3;2674;11365;4;2821;470;47;4;3691;16866;5;3844;218;49;5;0;0;0;0;0;0;0;0;6;5622;31189;4;2930;2828;552;544;43;7;5240;25296;4;5508;421;45;8;2600;12536;4;2728;427;34;9;2916;14039;4;3083;477;47
04.10.20;14:45:00;1;376;8020;0;2;3611;16777;4;3817;368;54;3;2316;11142;4;2447;478;46;4;3160;16558;5;3291;216;49;5;0;0;0;0;0;0;0;0;6;4876;30720;4;2554;2425;544;541;43;7;5266;24860;4;5534;426;45;8;2623;12320;4;2751;427;34;9;2947;13796;4;3116;474;47
04.10.20;14:40:00;1;403;7989;0;2;4113;16469;4;4334;360;55;3;2699;10944;4;2840;466;47;4;3677;16287;5;3830;217;50;5;0;0;0;0;0;0;0;0;6;5736;30325;4;2979;2874;545;539;43;7;5301;24424;4;5562;418;45;8;2644;12103;4;2767;423;34;9;2960;13552;4;3128;477;47
04.10.20;14:35:00;1;421;7955;0;2;4102;16126;4;4325;361;55;3;2695;10719;4;2833;468;47;4;3729;15980;5;3884;216;50;5;0;0;0;0;0;0;0;0;6;5822;29847;4;3021;2939;543;532;43;7;5329;23979;4;5595;415;45;8;2651;11881;4;2777;421;34;9;2979;13303;4;3142;471;47